FW1248 Weather Reports


time (UTC)temp
C
wind
direction
speed
KPH
gust
KPH
rain 1hr
cm
rain 24hr
cm
rain mn
cm
humidity
%
barometer
mb
20260508064554 0 162 0.0 0.0 0.00 0.00 0.00 46 1019.5
20260508063043 0 162 0.0 0.0 0.00 0.00 0.00 44 1019.4
20260508061544 0 162 0.0 0.0 0.00 0.00 0.00 46 1019.3
20260508060039 0 162 0.0 0.0 0.00 0.00 0.00 44 1019.2
20260508054538 0 162 0.0 0.0 0.00 0.00 0.00 41 1019.4
20260508053037 1 162 0.0 0.0 0.00 0.00 0.00 40 1019.2
20260508051535 1 162 0.0 0.0 0.00 0.00 0.00 41 1019.3
20260508050036 1 162 0.0 0.0 0.00 0.00 0.00 39 1019.2
20260508044536 2 162 0.0 0.0 0.00 0.00 0.00 38 1019.4
20260508043035 2 162 0.0 0.0 0.00 0.00 0.00 37 1019.3
20260508041535 3 162 0.0 0.0 0.00 0.00 0.00 35 1019.3
20260508040039 3 162 0.0 0.0 0.00 0.00 0.00 38 1019.2
20260508034534 3 162 0.0 0.0 0.00 0.00 0.00 35 1019.0
20260508033027 3 162 0.0 0.0 0.00 0.00 0.00 36 1018.9
20260508031531 3 162 0.0 0.0 0.00 0.00 0.00 44 1018.7
20260508030025 5 162 0.0 0.0 0.00 0.00 0.00 42 1018.5
20260508024539 5 162 0.0 0.0 0.00 0.00 0.00 37 1018.3
20260508023029 6 162 0.0 0.0 0.00 0.00 0.00 37 1018.0
20260508021524 7 162 0.0 0.0 0.00 0.00 0.00 33 1017.9
20260508020024 8 162 0.0 0.0 0.00 0.00 0.00 33 1017.4
20260508014541 9 162 0.0 0.0 0.00 0.00 0.00 29 1017.3
20260508013022 10 162 0.0 0.0 0.00 0.00 0.00 29 1017.1
20260508011522 11 158 0.0 0.0 0.00 0.00 0.00 26 1017.1
20260508010027 12 150 0.0 8.0 0.00 0.00 0.00 24 1016.9
20260508004523 13 346 0.0 0.0 0.00 0.00 0.00 23 1016.9
20260508003047 14 350 0.0 1.6 0.00 0.00 0.00 19 1016.9
20260508001518 15 28 0.0 0.0 0.00 0.00 0.00 18 1017.0
20260508000016 17 109 0.0 3.2 0.00 0.00 0.00 14 1017.1
20260507234516 17 68 0.0 6.4 0.00 0.00 0.00 13 1017.2
20260507233019 18 143 0.0 3.2 0.00 0.00 0.00 13 1017.3
20260507231515 18 71 0.0 4.8 0.00 0.00 0.00 13 1017.3
20260507230015 18 149 0.0 11.3 0.00 0.00 0.00 13 1017.4
20260507224513 18 308 0.0 6.4 0.00 0.00 0.00 14 1017.9
20260507223009 18 67 1.6 17.7 0.00 0.00 0.00 12 1017.8
20260507221506 20 146 3.2 11.3 0.00 0.00 0.00 11 1017.8
20260507213044 18 43 4.8 16.1 0.00 0.00 0.00 13 1018.7
20260507211554 20 159 4.8 12.9 0.00 0.00 0.00 13 1018.6
20260507210040 19 334 0.0 8.0 0.00 0.00 0.00 15 1019.1
20260507204537 18 155 0.0 8.0 0.00 0.00 0.00 18 1019.4
20260507203033 17 124 0.0 8.0 0.00 0.00 0.00 16 1019.7
20260507201532 18 257 0.0 9.7 0.00 0.00 0.00 18 1019.8
20260507200028 17 143 1.6 14.5 0.00 0.00 0.00 18 1019.9
20260507194530 18 324 4.8 11.3 0.00 0.00 0.00 17 1020.7
20260507193033 18 72 3.2 9.7 0.00 0.00 0.00 17 1020.8
20260507191521 17 246 0.0 11.3 0.00 0.00 0.00 16 1020.9
20260507190023 16 205 1.6 6.4 0.00 0.00 0.00 15 1021.0
20260507184519 16 210 4.8 11.3 0.00 0.00 0.00 14 1021.1
20260507183016 16 301 1.6 9.7 0.00 0.00 0.00 15 1021.5
20260507181511 15 197 0.0 8.0 0.00 0.00 0.00 16 1021.7
20260507180011 14 117 1.6 11.3 0.00 0.00 0.00 17 1021.8
20260507174506 14 146 0.0 1.6 0.00 0.00 0.00 22 1021.8
20260507173004 13 63 0.0 4.8 0.00 0.00 0.00 21 1022.1
20260507171607 13 79 0.0 3.2 0.00 0.00 0.00 23 1022.4
20260507170057 12 16 0.0 1.6 0.00 0.00 0.00 27 1023.0
20260507164555 12 195 0.0 0.0 0.00 0.00 0.00 28 1023.1
20260507163052 11 156 0.0 0.0 0.00 0.00 0.00 29 1023.3
20260507161548 10 210 0.0 0.0 0.00 0.00 0.00 32 1023.6
20260507160043 9 221 0.0 0.0 0.00 0.00 0.00 35 1023.8
20260507154538 7 283 0.0 0.0 0.00 0.00 0.00 44 1023.9
20260507153036 5 198 0.0 0.0 0.00 0.00 0.00 50 1024.0
20260507151530 2 136 0.0 0.0 0.00 0.00 0.00 64 1024.0
20260507150025 1 16 0.0 0.0 0.00 0.00 0.00 70 1024.2
20260507144520 0 15 0.0 0.0 0.00 0.00 0.00 67 1024.4
20260507143017 -2 20 0.0 0.0 0.00 0.00 0.00 74 1024.5
20260507141517 -3 21 0.0 0.0 0.00 0.00 0.00 74 1024.7
20260507140024 -5 20 0.0 0.0 0.00 0.00 0.00 76 1024.9
20260507134515 -5 20 0.0 0.0 0.00 0.00 0.00 76 1024.9
20260507133015 -5 20 0.0 1.6 0.00 0.00 0.00 76 1024.8
20260507131513 -6 9 1.6 4.8 0.00 0.00 0.00 80 1024.4
20260507130011 -6 354 0.0 1.6 0.00 0.00 0.00 80 1023.9
20260507124513 -6 356 0.0 0.0 0.00 0.00 0.00 1023.9
20260507123005 -17 0.0 0.0 0.00 0.00 0.00 1024.5
20260507121559 -17 11 0.0 0.0 0.00 0.00 0.00 1024.9
20260507120058 -6 14 0.0 0.0 0.00 0.00 0.00 79 1024.9
20260507114556 -6 13 0.0 0.0 0.00 0.00 0.00 79 1024.8
20260507113053 -6 13 0.0 0.0 0.00 0.00 0.00 79 1024.8
20260507111551 -5 13 0.0 0.0 0.00 0.00 0.00 78 1024.8
20260507110052 -5 13 0.0 0.0 0.00 0.00 0.00 78 1024.5
20260507104547 -5 15 0.0 0.0 0.00 0.00 0.00 78 1024.6
20260507103044 -5 15 0.0 0.0 0.00 0.00 0.00 78 1024.2
20260507101558 -5 13 0.0 0.0 0.00 0.00 0.00 78 1024.0
20260507100040 -5 13 0.0 0.0 0.00 0.00 0.00 77 1023.6
20260507094544 -5 13 0.0 0.0 0.00 0.00 0.00 75 1023.8
20260507093036 -4 12 0.0 0.0 0.00 0.00 0.00 76 1023.7
20260507091551 -4 13 0.0 0.0 0.00 0.00 0.00 77 1023.7
20260507090035 -4 13 0.0 0.0 0.00 0.00 0.00 76 1023.5
20260507084532 -4 1 0.0 0.0 0.00 0.00 0.00 75 1023.7
20260507083031 -4 1 0.0 0.0 0.00 0.00 0.00 76 1023.6
20260507081545 -3 1 0.0 0.0 0.00 0.00 0.00 76 1023.7
20260507080025 -3 1 0.0 0.0 0.00 0.00 0.00 74 1023.8
20260507074529 -3 1 0.0 0.0 0.00 0.00 0.00 74 1023.7
20260507073022 -3 1 0.0 0.0 0.00 0.00 0.00 73 1023.5
20260507071518 -3 1 0.0 0.0 0.00 0.00 0.00 72 1023.3
20260507070016 -3 2 0.0 0.0 0.00 0.00 0.00 70 1023.1